OPS 4682 DEB, 14049

Orbit data source: Space-Track

OPS 4682 DEB, 14049 is space debris in LEO originally from a launch on Sat, 03 Apr 1965 UTC launched from the Air Force Western Test Range (AFWTR). Debris objects in space refer to the collection of defunct objects orbiting the Earth. Examples of debris include non-operational satellites, rocket bodies, and fragments generated from explosions, collisions, or faulty payload assembly.

Loading next visibility...
Identifier
14049, 1965-027L
Orbit
LEO
Country
Flag of USUS
Related business
Manufacturer
Unknown
Mission
Spacecraft
Bus & Motor
Unknown
Mass
Unknown
Launch date (UTC)
1965-04-03 (61 years ago)
Launch vehicle
Unknown
Launch site
Air Force Western Test Range (AFWTR)
Object type
Payload
Rocket body
Debris
Shape & HBR
Unknown shape, 0.1 m
Radar Cross Section
Small (<0.1 m²)

Expand to show TLE details & history
Last TLE update: 1 week ago

TLE from 1 week ago
0 OPS 4682 DEB
1 14049U 65027L   26127.95563109  .00000318  00000-0  11127-2 0  9990
2 14049  90.2470   7.5560 0039287 294.7884  82.1281 12.94587105 53020
Epoch: 2026-05-07T22:56Z
TLE epoch observation values (Epoch: 2026-05-07T22:56:06.526Z)
Latitude
17.34971°
Longitude
157.65769°
Altitude
1,281.654 km
Speed
7.218 km/s
True Right ascension
00h 29m 55s
True Declination
17° 15' 32"
Sunlit
Object was in daylight at epoch
Visualization orbit readout
Latitude
Unknown
Longitude
Unknown
Altitude
Unknown
Speed
Unknown
Apparent Right ascension
Unknown
Apparent Declination
Unknown
Sunlit
N/A
Visualization observer readout
Local Sidereal Time
20:09:06
Azimuth
Unknown
Elevation
Unknown
Doppler factor
Unknown
Orbital elements
Apogee altitude
1,310.592 km
Perigee altitude
1,250.415 km
Semi-major axis
7,658.641 km
Eccentricity
0.00393
Inclination
90.247°
RAAN
7.556°
Arg. of periapsis
294.7884°
True anomaly
82.57435°
Mean anomaly
82.1281°
Eccentric anomaly
82.3512°
Mean motion
3.23829 °/min
Orbital period
111.17 mins
BSTAR
0.0011127
Loading maneuver chart data...
Computing Atmospheric mass density...
Loading historical data...
Loading historical data...
Loading historical data...
Loading historical data...
Loading historical data...
Loading historical data...
Loading historical data...

Documentation

Showing up to 5 results
|